| time (UTC) | temp F | wind direction | speed MPH | gust MPH | rain 1hr in | rain 24hr in | rain mn in | humidity % | barometer mb |
| 20260505070004 | 46 | 183 | 0.0 | 0.0 | 0.00 | 0.05 | 0.00 | 91 | 1008.1 |
| 20260505065504 | 46 | 182 | 0.0 | 1.0 | 0.00 | 0.05 | 0.00 | 91 | 1008.3 |
| 20260505065004 | 47 | 208 | 0.0 | 0.0 | 0.00 | 0.05 | 0.00 | 91 | 1008.3 |
| 20260505064503 | 47 | 209 | 0.0 | 0.0 | 0.00 | 0.05 | 0.00 | 91 | 1008.3 |
| 20260505063504 | 47 | 209 | 0.0 | 0.0 | 0.00 | 0.05 | 0.00 | 91 | 1008.3 |
| 20260505063004 | 47 | 209 | 0.0 | 0.0 | 0.00 | 0.05 | 0.00 | 91 | 1008.3 |
| 20260505062504 | 47 | 209 | 0.0 | 0.0 | 0.00 | 0.05 | 0.00 | 91 | 1008.2 |
| 20260505062005 | 47 | 209 | 0.0 | 0.0 | 0.00 | 0.05 | 0.00 | 91 | 1008.2 |
| 20260505061504 | 47 | 209 | 0.0 | 0.0 | 0.00 | 0.05 | 0.00 | 91 | 1008.2 |
| 20260505061004 | 47 | 209 | 0.0 | 0.0 | 0.01 | 0.05 | 0.00 | 91 | 1008.2 |
| 20260505060506 | 47 | 209 | 0.0 | 1.0 | 0.01 | 0.05 | 0.00 | 91 | 1008.3 |
| 20260505055503 | 47 | 176 | 0.0 | 0.0 | 0.01 | 0.05 | 0.05 | 91 | 1008.1 |
| 20260505055004 | 47 | 176 | 0.0 | 0.0 | 0.01 | 0.05 | 0.05 | 91 | 1008.1 |
| 20260505054504 | 47 | 175 | 0.0 | 0.0 | 0.01 | 0.05 | 0.05 | 91 | 1007.9 |
| 20260505053504 | 47 | 168 | 0.0 | 0.0 | 0.02 | 0.05 | 0.05 | 90 | 1008.0 |
| 20260505053004 | 47 | 168 | 0.0 | 0.0 | 0.02 | 0.05 | 0.05 | 90 | 1008.0 |
| 20260505052504 | 47 | 156 | 0.0 | 0.0 | 0.02 | 0.05 | 0.05 | 90 | 1008.1 |
| 20260505052004 | 47 | 146 | 0.0 | 0.0 | 0.02 | 0.05 | 0.05 | 90 | 1008.1 |
| 20260505051504 | 47 | 145 | 0.0 | 0.0 | 0.02 | 0.05 | 0.05 | 90 | 1008.4 |
| 20260505051005 | 47 | 145 | 0.0 | 0.0 | 0.02 | 0.04 | 0.04 | 90 | 1008.5 |
| 20260505050505 | 47 | 145 | 0.0 | 0.0 | 0.03 | 0.04 | 0.04 | 90 | 1008.4 |
| 20260505041505 | 49 | 26 | 1.0 | 5.0 | 0.03 | 0.03 | 0.03 | 83 | 1008.6 |
| 20260505041004 | 49 | 141 | 0.0 | 5.0 | 0.02 | 0.02 | 0.02 | 81 | 1008.5 |
| 20260505040504 | 50 | 34 | 0.0 | 5.0 | 0.01 | 0.01 | 0.01 | 78 | 1008.3 |
| 20260505035504 | 52 | 138 | 0.0 | 3.0 | 0.00 | 0.00 | 0.00 | 71 | 1008.0 |
| 20260505035004 | 52 | 104 | 0.0 | 2.0 | 0.00 | 0.00 | 0.00 | 68 | 1007.9 |
| 20260505034504 | 52 | 124 | 0.0 | 1.0 | 0.00 | 0.00 | 0.00 | 67 | 1007.6 |
| 20260505034004 | 52 | 149 | 0.0 | 0.0 | 0.00 | 0.00 | 0.00 | 66 | 1007.8 |
| 20260505033504 | 52 | 115 | 0.0 | 1.0 | 0.00 | 0.00 | 0.00 | 66 | 1007.6 |
| 20260505033005 | 52 | 54 | 0.0 | 1.0 | 0.00 | 0.00 | 0.00 | 65 | 1007.4 |
| 20260505032005 | 52 | 104 | 0.0 | 0.0 | 0.00 | 0.00 | 0.00 | 64 | 1007.2 |
| 20260505031504 | 53 | 108 | 0.0 | 0.0 | 0.00 | 0.00 | 0.00 | 64 | 1007.2 |
| 20260505031004 | 53 | 98 | 0.0 | 0.0 | 0.00 | 0.00 | 0.00 | 63 | 1007.2 |
| 20260505030504 | 53 | 70 | 0.0 | 0.0 | 0.00 | 0.00 | 0.00 | 63 | 1007.0 |
| 20260505025504 | 53 | 17 | 0.0 | 0.0 | 0.00 | 0.00 | 0.00 | 62 | 1006.9 |
| 20260505025004 | 53 | 349 | 0.0 | 0.0 | 0.00 | 0.00 | 0.00 | 61 | 1006.7 |
| 20260505024004 | 53 | 336 | 0.0 | 1.0 | 0.00 | 0.00 | 0.00 | 61 | 1006.6 |
| 20260505023004 | 53 | 320 | 0.0 | 1.0 | 0.00 | 0.00 | 0.00 | 61 | 1006.5 |
| 20260505022505 | 53 | 282 | 0.0 | 1.0 | 0.00 | 0.00 | 0.00 | 61 | 1006.5 |
| 20260505022004 | 53 | 115 | 0.0 | 0.0 | 0.00 | 0.00 | 0.00 | 62 | 1006.4 |
| 20260505021504 | 53 | 115 | 0.0 | 0.0 | 0.00 | 0.00 | 0.00 | 62 | 1006.4 |
| 20260505021004 | 53 | 114 | 0.0 | 1.0 | 0.00 | 0.00 | 0.00 | 62 | 1006.5 |
| 20260505020504 | 53 | 84 | 0.0 | 1.0 | 0.00 | 0.00 | 0.00 | 62 | 1006.5 |
| 20260505015503 | 53 | 113 | 0.0 | 2.0 | 0.00 | 0.00 | 0.00 | 61 | 1006.3 |
| 20260505015004 | 53 | 310 | 0.0 | 1.0 | 0.00 | 0.00 | 0.00 | 61 | 1005.9 |
| 20260505014504 | 54 | 61 | 0.0 | 3.0 | 0.00 | 0.00 | 0.00 | 60 | 1005.6 |
| 20260505014008 | 54 | 57 | 1.0 | 3.0 | 0.00 | 0.00 | 0.00 | 58 | 1005.7 |
| 20260505013504 | 54 | 350 | 0.0 | 2.0 | 0.00 | 0.00 | 0.00 | 57 | 1005.6 |
| 20260505013004 | 54 | 346 | 0.0 | 1.0 | 0.00 | 0.00 | 0.00 | 57 | 1005.7 |
| 20260505012504 | 54 | 346 | 0.0 | 0.0 | 0.00 | 0.00 | 0.00 | 56 | 1005.9 |
| 20260505012004 | 55 | 90 | 0.0 | 2.0 | 0.00 | 0.00 | 0.00 | 55 | 1005.9 |
| 20260505011504 | 55 | 75 | 0.0 | 2.0 | 0.00 | 0.00 | 0.00 | 55 | 1005.9 |
| 20260505010505 | 56 | 15 | 1.0 | 3.0 | 0.00 | 0.00 | 0.00 | 53 | 1005.8 |
| 20260505005504 | 57 | 105 | 2.0 | 5.0 | 0.00 | 0.00 | 0.00 | 51 | 1005.8 |
| 20260505005004 | 58 | 353 | 1.0 | 5.0 | 0.00 | 0.00 | 0.00 | 47 | 1005.7 |
| 20260505004503 | 58 | 343 | 1.0 | 5.0 | 0.00 | 0.00 | 0.00 | 44 | 1005.6 |
| 20260505004005 | 58 | 358 | 0.0 | 3.0 | 0.00 | 0.00 | 0.00 | 44 | 1005.5 |
| 20260505003504 | 58 | 347 | 1.0 | 3.0 | 0.00 | 0.00 | 0.00 | 43 | 1005.4 |
| 20260505002504 | 59 | 351 | 0.0 | 3.0 | 0.00 | 0.00 | 0.00 | 42 | 1005.3 |
| 20260505002004 | 59 | 20 | 1.0 | 6.0 | 0.00 | 0.00 | 0.00 | 41 | 1005.2 |
| 20260505001504 | 59 | 6 | 2.0 | 8.0 | 0.00 | 0.00 | 0.00 | 41 | 1005.1 |
| 20260505001004 | 60 | 1 | 0.0 | 5.0 | 0.00 | 0.00 | 0.00 | 41 | 1005.0 |
| 20260505000505 | 60 | 6 | 1.0 | 8.0 | 0.00 | 0.00 | 0.00 | 41 | 1005.0 |
| 20260505000004 | 61 | 347 | 4.0 | 9.0 | 0.00 | 0.00 | 0.00 | 39 | 1004.9 |
| 20260504235504 | 61 | 2 | 3.0 | 7.0 | 0.00 | 0.00 | 0.00 | 37 | 1004.7 |
| 20260504235005 | 62 | 349 | 2.0 | 5.0 | 0.00 | 0.00 | 0.00 | 34 | 1004.5 |
| 20260504234504 | 62 | 336 | 2.0 | 5.0 | 0.00 | 0.00 | 0.00 | 33 | 1004.6 |
| 20260504234004 | 62 | 47 | 2.0 | 6.0 | 0.00 | 0.00 | 0.00 | 32 | 1004.6 |
| 20260504233504 | 62 | 22 | 1.0 | 3.0 | 0.00 | 0.00 | 0.00 | 33 | 1004.6 |
| 20260504233004 | 62 | 63 | 2.0 | 7.0 | 0.00 | 0.00 | 0.00 | 32 | 1004.5 |
| 20260504232004 | 63 | 25 | 1.0 | 3.0 | 0.00 | 0.00 | 0.00 | 32 | 1004.4 |
| 20260504231504 | 63 | 50 | 2.0 | 3.0 | 0.00 | 0.00 | 0.00 | 32 | 1004.3 |
| 20260504231005 | 63 | 357 | 1.0 | 3.0 | 0.00 | 0.00 | 0.00 | 32 | 1004.1 |
| 20260504230505 | 63 | 41 | 2.0 | 5.0 | 0.00 | 0.00 | 0.00 | 32 | 1003.9 |
| 20260504230005 | 63 | 61 | 2.0 | 9.0 | 0.00 | 0.00 | 0.00 | 32 | 1003.9 |
| 20260504225504 | 63 | 0 | 3.0 | 8.0 | 0.00 | 0.00 | 0.00 | 31 | 1003.6 |
| 20260504225005 | 64 | 6 | 2.0 | 7.0 | 0.00 | 0.00 | 0.00 | 31 | 1003.5 |
| 20260504224504 | 64 | 19 | 1.0 | 9.0 | 0.00 | 0.00 | 0.00 | 31 | 1003.5 |
| 20260504224004 | 64 | 0 | 2.0 | 9.0 | 0.00 | 0.00 | 0.00 | 31 | 1003.7 |
| 20260504223505 | 64 | 358 | 1.0 | 3.0 | 0.00 | 0.00 | 0.00 | 30 | 1003.7 |
| 20260504223005 | 64 | 48 | 2.0 | 5.0 | 0.00 | 0.00 | 0.00 | 31 | 1003.8 |
| 20260504222504 | 64 | 76 | 2.0 | 6.0 | 0.00 | 0.00 | 0.00 | 31 | 1003.8 |
| 20260504222004 | 64 | 45 | 1.0 | 9.0 | 0.00 | 0.00 | 0.00 | 29 | 1003.8 |
| 20260504221504 | 65 | 37 | 2.0 | 6.0 | 0.00 | 0.00 | 0.00 | 28 | 1003.6 |
| 20260504221005 | 66 | 23 | 3.0 | 7.0 | 0.00 | 0.00 | 0.00 | 28 | 1003.5 |
| 20260504220504 | 66 | 58 | 2.0 | 7.0 | 0.00 | 0.00 | 0.00 | 27 | 1003.3 |
| 20260504220004 | 67 | 46 | 2.0 | 8.0 | 0.00 | 0.00 | 0.00 | 25 | 1003.2 |
| 20260504215504 | 68 | 71 | 1.0 | 3.0 | 0.00 | 0.00 | 0.00 | 23 | 1003.0 |
| 20260504215005 | 68 | 74 | 1.0 | 3.0 | 0.00 | 0.00 | 0.00 | 23 | 1003.1 |
| 20260504214504 | 68 | 20 | 0.0 | 3.0 | 0.00 | 0.00 | 0.00 | 23 | 1003.1 |
| 20260504214005 | 68 | 8 | 0.0 | 2.0 | 0.00 | 0.00 | 0.00 | 22 | 1003.1 |
| 20260504213505 | 69 | 350 | 1.0 | 8.0 | 0.00 | 0.00 | 0.00 | 22 | 1003.3 |
| 20260504213004 | 69 | 77 | 2.0 | 3.0 | 0.00 | 0.00 | 0.00 | 22 | 1003.5 |
| 20260504212504 | 70 | 115 | 1.0 | 8.0 | 0.00 | 0.00 | 0.00 | 22 | 1003.4 |
| 20260504211504 | 71 | 42 | 2.0 | 5.0 | 0.00 | 0.00 | 0.00 | 21 | 1003.4 |
| 20260504211005 | 70 | 8 | 2.0 | 5.0 | 0.00 | 0.00 | 0.00 | 22 | 1003.5 |
| 20260504210005 | 69 | 33 | 2.0 | 8.0 | 0.00 | 0.00 | 0.00 | 23 | 1003.5 |
| 20260504205505 | 69 | 15 | 1.0 | 9.0 | 0.00 | 0.00 | 0.00 | 22 | 1003.5 |
| 20260504205005 | 69 | 35 | 1.0 | 6.0 | 0.00 | 0.00 | 0.00 | 22 | 1003.5 |
| 20260504204005 | 70 | 11 | 2.0 | 6.0 | 0.00 | 0.00 | 0.00 | 22 | 1003.6 |
| 20260504203505 | 70 | 357 | 2.0 | 8.0 | 0.00 | 0.00 | 0.00 | 23 | 1003.6 |
| 20260504203005 | 70 | 84 | 2.0 | 7.0 | 0.00 | 0.00 | 0.00 | 22 | 1003.6 |
| 20260504202505 | 71 | 84 | 1.0 | 7.0 | 0.00 | 0.00 | 0.00 | 22 | 1003.7 |
| 20260504202005 | 70 | 158 | 2.0 | 8.0 | 0.00 | 0.00 | 0.00 | 22 | 1003.6 |
| 20260504201504 | 71 | 18 | 1.0 | 8.0 | 0.00 | 0.00 | 0.00 | 21 | 1003.7 |
| 20260504201004 | 71 | 85 | 1.0 | 3.0 | 0.00 | 0.00 | 0.00 | 21 | 1003.8 |
| 20260504200504 | 72 | 31 | 2.0 | 5.0 | 0.00 | 0.00 | 0.00 | 21 | 1003.8 |
| 20260504195504 | 72 | 119 | 2.0 | 6.0 | 0.00 | 0.00 | 0.00 | 22 | 1003.9 |
| 20260504195005 | 71 | 31 | 1.0 | 8.0 | 0.00 | 0.00 | 0.00 | 22 | 1003.9 |
| 20260504194504 | 70 | 353 | 0.0 | 3.0 | 0.00 | 0.00 | 0.00 | 24 | 1004.0 |
| 20260504194005 | 68 | 1 | 1.0 | 8.0 | 0.00 | 0.00 | 0.00 | 25 | 1004.2 |
| 20260504193505 | 67 | 357 | 2.0 | 5.0 | 0.00 | 0.00 | 0.00 | 25 | 1004.2 |
| 20260504193005 | 66 | 65 | 0.0 | 3.0 | 0.00 | 0.00 | 0.00 | 26 | 1004.3 |
| 20260504192504 | 66 | 17 | 3.0 | 9.0 | 0.00 | 0.00 | 0.00 | 25 | 1004.4 |
| 20260504192004 | 66 | 109 | 1.0 | 8.0 | 0.00 | 0.00 | 0.00 | 24 | 1004.3 |
| 20260504191505 | 66 | 8 | 2.0 | 8.0 | 0.00 | 0.00 | 0.00 | 24 | 1004.3 |
| 20260504191005 | 66 | 121 | 2.0 | 8.0 | 0.00 | 0.00 | 0.00 | 23 | 1004.3 |
| 20260504190005 | 67 | 150 | 1.0 | 5.0 | 0.00 | 0.00 | 0.00 | 22 | 1004.1 |
| 20260504185504 | 67 | 128 | 3.0 | 10.0 | 0.00 | 0.00 | 0.00 | 22 | 1004.0 |
| 20260504185004 | 68 | 146 | 1.0 | 3.0 | 0.00 | 0.00 | 0.00 | 22 | 1003.9 |
| 20260504184504 | 68 | 191 | 1.0 | 3.0 | 0.00 | 0.00 | 0.00 | 22 | 1003.9 |
| 20260504183505 | 69 | 16 | 0.0 | 2.0 | 0.00 | 0.00 | 0.00 | 22 | 1004.0 |
| 20260504183005 | 69 | 125 | 0.0 | 3.0 | 0.00 | 0.00 | 0.00 | 21 | 1004.0 |
| 20260504182504 | 69 | 63 | 1.0 | 3.0 | 0.00 | 0.00 | 0.00 | 21 | 1004.1 |
| 20260504182005 | 69 | 123 | 0.0 | 1.0 | 0.00 | 0.00 | 0.00 | 21 | 1004.0 |
| 20260504181504 | 69 | 210 | 1.0 | 7.0 | 0.00 | 0.00 | 0.00 | 21 | 1004.1 |
| 20260504181004 | 70 | 109 | 1.0 | 3.0 | 0.00 | 0.00 | 0.00 | 20 | 1004.2 |
| 20260504180505 | 70 | 4 | 1.0 | 3.0 | 0.00 | 0.00 | 0.00 | 20 | 1004.2 |
| 20260504175504 | 71 | 30 | 1.0 | 3.0 | 0.00 | 0.00 | 0.00 | 19 | 1004.3 |
| 20260504175005 | 72 | 20 | 1.0 | 5.0 | 0.00 | 0.00 | 0.00 | 18 | 1004.4 |
| 20260504174504 | 73 | 125 | 1.0 | 6.0 | 0.00 | 0.00 | 0.00 | 19 | 1004.4 |
| 20260504174005 | 72 | 178 | 2.0 | 7.0 | 0.00 | 0.00 | 0.00 | 20 | 1004.5 |
| 20260504173505 | 72 | 337 | 1.0 | 5.0 | 0.00 | 0.00 | 0.00 | 21 | 1004.6 |
| 20260504173005 | 72 | 128 | 0.0 | 9.0 | 0.00 | 0.00 | 0.00 | 20 | 1004.8 |
| 20260504172504 | 71 | 154 | 1.0 | 3.0 | 0.00 | 0.00 | 0.00 | 21 | 1004.8 |
| 20260504171505 | 70 | 143 | 1.0 | 3.0 | 0.00 | 0.00 | 0.00 | 21 | 1004.9 |
| 20260504151005 | 64 | 79 | 0.0 | 2.0 | 0.00 | 0.00 | 0.00 | 27 | 1005.9 |
| 20260504150505 | 63 | 157 | 0.0 | 5.0 | 0.00 | 0.00 | 0.00 | 28 | 1006.0 |
| 20260504141004 | 56 | 219 | 0.0 | 2.0 | 0.00 | 0.00 | 0.00 | 37 | 1006.3 |
| 20260504140505 | 55 | 174 | 0.0 | 1.0 | 0.00 | 0.00 | 0.00 | 37 | 1006.2 |
| 20260504130505 | 51 | 170 | 0.0 | 3.0 | 0.00 | 0.00 | 0.00 | 41 | 1005.9 |
| 20260504110505 | 48 | 246 | 0.0 | 1.0 | 0.00 | 0.00 | 0.00 | 46 | 1005.9 |
| 20260504100504 | 47 | 149 | 0.0 | 1.0 | 0.00 | 0.00 | 0.00 | 49 | 1006.3 |
| 20260504082005 | 50 | 173 | 0.0 | 0.0 | 0.00 | 0.00 | 0.00 | 45 | 1007.0 |
| 20260504081504 | 50 | 173 | 0.0 | 0.0 | 0.00 | 0.00 | 0.00 | 45 | 1007.1 |